Regional Weather Roundup
Issued by NWS Green Bay, WI

Home | Current Version | Previous Version | Graphics & Text | Print | Product List | Glossary Off
Versions: 1 2 3 4 5 6 7 8 9 10 11 12 13 14 15 16 17 18 19 20 21 22 23 24 25 26 27 28 29 30 31 32 33 34 35 36 37 38 39 40 41 42 43 44 45 46 47 48 49 50

000
ASUS43 KGRB 281610
RWRGRB

NORTH-CENTRAL AND NORTHEAST WISCONSIN REGIONAL WEATHER ROUNDUP
NATIONAL WEATHER SERVICE GREEN BAY WI
1000 AM CST SUN DEC 28 2014

WIZ005-009-010>012-018-019-281700-
NORTH CENTRAL WISCONSIN

CITY           SKY/WX    TMP DP  RH WIND       PRES   REMARKS
IRONWOOD       CLOUDY    16  12  86 W9        30.05R WCI   4
MANITOWISH WTR LGT SNOW  13  11  90 W5        30.05R WCI   6
ARBOR VITAE    PTSUNNY   17  14  88 W5        30.05R WCI  10
EAGLE RIVER    SUNNY     15  10  81 W8        30.04R WCI   4
LAND O LAKES   LGT SNOW  17  13  85 W5        30.04R
RHINELANDER    PTSUNNY    9   7  92 W7        30.06R WCI  -2
PHILLIPS       LGT SNOW  12  10  89 CALM      30.08R
ANTIGO         LGT SNOW  13  11  92 NW7       30.08R VSB 1   WCI   2
TOMAHAWK       LGT SNOW  14  11  90 CALM      30.08R
MERRILL        LGT SNOW  13  11  91 CALM      30.10R
$$

WIZ013-073-281700-
NORTHEAST WISCONSIN

CITY           SKY/WX    TMP DP  RH WIND       PRES   REMARKS
IRON MOUNTAIN  FLURRIES  16  11  80 W8        30.05R WCI   5
MARINETTE      SUNNY     19  12  73 NW5       30.10R
OCONTO         SUNNY     21  15  78 W9        30.12S
$$

WIZ017-030-035>037-045-281700-
CENTRAL WISCONSIN

CITY           SKY/WX    TMP DP  RH WIND       PRES   REMARKS
MEDFORD        LGT SNOW  11   9  89 CALM      30.09R
WAUSAU         FOG       15  12  88 NW3       30.10R VSB 3/4
MOSINEE        CLOUDY    14  14 100 W5        30.11R FOG     WCI   6
MARSHFIELD     CLOUDY    12   8  84 W5        30.11R WCI   4
WISC RAPIDS    SUNNY     17  12  80 NW3       30.15R
STEVENS POINT  CLOUDY    15  13  91 CALM      30.13R
WAUPACA        SUNNY     23  17  76 W5        30.14R
SHAWANO        SUNNY     20  14  78 W5        30.13R
CLINTONVILLE   SUNNY     19  14  79 NW6       30.13R
$$

WIZ038-039-048-051-281700-
FOX VALLEY

CITY           SKY/WX    TMP DP  RH WIND       PRES   REMARKS
NWS GREEN BAY  PTSUNNY   22  17  81 W9        30.13S
APPLETON       PTSUNNY   19  16  86 W9        30.13R WCI   9
OSHKOSH        MOSUNNY   21  15  78 W7        30.15R
FOND DU LAC    SUNNY     23  14  68 W8        30.15S
$$

WIZ022-050-052-281700-
EAST CENTRAL WISCONSIN

CITY           SKY/WX    TMP DP  RH WIND       PRES   REMARKS
STURGEON BAY   SUNNY     19  12  73 W10       30.12R WCI   8
MANITOWOC      SUNNY     24  19  81 W12       30.13S
SHEBOYGAN      SUNNY     24  17  74 W12       30.13S
$$

LMZ563-521-522-541>543-281700-
LAKESHORE

STATION/POSITION TIME  TEMP    WIND        PRES    VSBY  WAVE
                       AIR SEA DIR/SP/G                  HT/PER
                 (UTC) (F)     (DEG/KT/KT) (MB)    (MI)  (FT/S)
SHEBOYGAN LKSHOR 1600   24 36  270/ 10/ 12 1021.8R
KEWAUNEE LKSHORE 1600   23     290/ 12/ 16 1018.8R
ALGOMA MARINA    1600          310/ 10/ 19   N/A
NORTHPORT PIER   1600   23     280/  8/ 16 1018.6S
SISTER BAY LKSHO 1600          290/ 13/ 15   N/A
STURGEON BAY CG  1600   23     310/  7     1019.2S     6   1
CHAMBERS ISLAND  1600   22     230/  5/ 10 1019.3R
MENOMINEE LKSHOR 1600   20     240/  8/ 11 1020.1R
$$


USA.gov is the U.S. government's official web portal to all federal, state and local government web resources and services.